Regional Weather Roundup
Issued by NWS

Home | Current Version | Previous Version | Text Only | Print | Product List | Glossary On
Versions: 1 2 3 4 5 6 7 8 9 10 11 12 13 14 15 16 17 18 19 20 21 22 23 24 25 26 27 28 29 30 31 32 33 34 35 36 37 38 39 40 41 42 43 44 45 46 47 48 49 50
107
ASUS43 KMKX 241721
RWRWI

WISCONSIN REGIONAL WEATHER ROUNDUP
NATIONAL WEATHER SERVICE MILWAUKEE/SULLIVAN WI
1100 AM CST FRI FEB 24 2017

NOTE: "FAIR" INDICATES FEW OR NO CLOUDS BELOW 12,000 FEET WITH NO
SIGNIFICANT WEATHER AND/OR OBSTRUCTIONS TO VISIBILITY.

WIZ001-002-006>008-014>016-023>028-241800-
NORTHWEST WISCONSIN

CITY           SKY/WX    TMP DP  RH WIND       PRES   REMARKS
SUPERIOR ARPT  CLOUDY    22  13  69 NE13G18   29.96F WCI  10
ASHLAND        LGT SNOW  20  15  81 N16G25    29.93S WCI   6
HAYWARD        LGT SNOW  22  15  75 N21G26    29.86S WCI   6
SIREN          LGT SNOW  24  18  77 NE17      29.88F WCI  10
CUMBERLAND     LGT SNOW  25  19  80 N22       29.81F WCI  10
RICE LAKE      LGT SNOW  25  20  82 N21       29.82F WCI  10
CHETEK         LGT SNOW  26  20  77 N8G20     29.80F WCI  17
LADYSMITH      LGT SNOW  26  19  73 N14G23    29.80F WCI  15
EAU CLAIRE     CLOUDY    26  22  84 N16G24    29.77S FOG     WCI  14
MENOMONIE      LGT SNOW  28  23  80 N15G22    29.80S WCI  16
NEW RICHMOND   LGT SNOW  26  19  74 N14G21    29.84R WCI  14
OSCEOLA        CLOUDY    27  19  71 N14G21    29.88F WCI  15
$$

WIZ003>005-009-010-017-018-241800-
NORTH CENTRAL WISCONSIN

CITY           SKY/WX    TMP DP  RH WIND       PRES   REMARKS
MANITOWISH WTR LGT SNOW  20  17  87 NE10G17   29.78S WCI   9
ARBOR VITAE    MIX PCPN  22  18  84 NE13G23     N/A  WCI  10
WOODRUFF       MIX PCPN  22  18  84 NE13G23     N/A  WCI  10
RHINELANDER    MIX PCPN  23  19  85 N14G22    29.73F FOG     WCI  11
EAGLE RIVER    MIX PCPN  21  16  82 NE13G18   29.75S WCI   9
LAND O LAKES   LGT SNOW  21  17  86 N14       29.78S WCI   8
PHILLIPS       LGT SNOW  22  18  86 N12       29.77S VSB 1   WCI  10
TOMAHAWK       MIX PCPN  23  19  87 N9        29.74F WCI  13
MEDFORD        CLOUDY    24  19  83 N15       29.72S HAZE    WCI  11
MERRILL        NOT AVBL
$$

WIZ029-030-035-036-043>047-241800-
CENTRAL WISCONSIN

CITY           SKY/WX    TMP DP  RH WIND       PRES   REMARKS
WAUSAU         LGT SNOW  25  21  85 N10       29.69F FOG     WCI  15
MOSINEE        LGT SNOW  25  23  93 N13       29.71R WCI  13
MARSHFIELD     CLOUDY    26  21  81 NE15G26   29.69R HAZE    WCI  14
STEVENS POINT  MIX PCPN  24  22  91 N18G24    29.69S WCI  10
WAUPACA        CLOUDY    30  25  81 N14G25    29.66S HAZE    WCI  19
WAUTOMA        FRZ RAIN  28  27  93 NE16G22   29.65S FOG     WCI  17
WISC RAPIDS    LGT SNOW  27  24  89 NE18G26   29.68F FOG     WCI  14
CAMP DOUGLAS   FRZ DRZL  28  27  93 NE8       29.66S FOG     WCI  20
$$

WIZ011>013-019>022-031-037>040-048>050-241800-
NORTHEAST WISCONSIN

CITY           SKY/WX    TMP DP  RH WIND       PRES   REMARKS
ANTIGO         CLOUDY    22  19  89 NE15      29.70F FOG     WCI   9
SHAWANO        CLOUDY    29  25  83 NE21      29.68F FOG     WCI  16
OCONTO         CLOUDY    27  23  84 NE12G31   29.68S WCI  17
STURGEON BAY   LGT SNOW  27  25  93 NE20      29.67F FOG     WCI  13
GREEN BAY      LGT SNOW  29  27  92 NE26G41   29.65S VSB 1   WCI  14
MANITOWOC      LGT SNOW  32  29  88 NE15G28   29.60F VSB 1   WCI  22
APPLETON       CLOUDY    28  23  80 NE20G28   29.62R HAZE    WCI  15
CLINTONVILLE   MIX PCPN  28  25  86 NE16G22   29.68R WCI  17
OSHKOSH        CLOUDY    29  25  85 NE25G36   29.61S WCI  14
$$

WIZ032>034-041-042-053>061-241800-
SOUTHWEST WISCONSIN

CITY           SKY/WX    TMP DP  RH WIND       PRES   REMARKS
LA CROSSE      LGT SNOW  32  27  81 N13       29.70R VSB 1   WCI  22
SPARTA         CLOUDY    30  28  92 N10       29.69R FOG     WCI  21
VIROQUA        CLOUDY    30  27  90 NE21G26   29.63R WCI  17
BOSCOBEL       CLOUDY    32  29  88 NE10G20   29.61F FOG     WCI  24
PRAIRIE DU CHI CLOUDY    31  30  96 N12       29.62R FOG     WCI  22
PLATTEVILLE    CLOUDY    32  32 100 NE10      29.54F WCI  24
$$

WIZ056-057-062-063-064-067-068-241800-
SOUTH CENTRAL WISCONSIN

CITY           SKY/WX    TMP DP  RH WIND       PRES   REMARKS
REEDSBURG      CLOUDY    29  29  98 NE12G17   29.61F FOG     WCI  20
BARABOO/DELLS  CLOUDY    29  28  94 NE13G21   29.60S FOG     WCI  19
LONE ROCK      FRZ RAIN  31  28  89 NE14G23   29.61S FOG     WCI  21
MINERAL POINT    N/A     32  32 100 NE6       29.54F WCI  26
MADISON        CLOUDY    31  29  92 NE22      29.56R FOG     WCI  18
MIDDLETON      CLOUDY    33  32  99 NE14      29.57R WCI  23
WATERTOWN      CLOUDY    33  33 100 NE14G20   29.53F WCI  23
MONROE         CLOUDY    32  32 100 NE23G30   29.49F WCI  19
JANESVILLE     CLOUDY    36  36 100 NE16G22   29.50F FOG     WCI  26
$$

WIZ051-052-058>065-066-070>072-241800-
SOUTHEAST WISCONSIN

CITY           SKY/WX    TMP DP  RH WIND       PRES   REMARKS
MILWAUKEE      CLOUDY    35  33  92 NE15G29   29.51F FOG     WCI  25
WAUKESHA       CLOUDY    30  30 100 NE16G23   29.57S FOG     WCI  19
MILWAUKEE/TIMM LGT RAIN  34  30  86 NE22G33   29.53F WCI  22
RACINE         LGT RAIN  36  34  92 NE16G23   29.52F FOG     WCI  26
KENOSHA        MIX PCPN  36  34  92 NE16      29.50S VSB 1   WCI  26
FOND DU LAC    MIX PCPN  32  27  81 NE21G30   29.60R WCI  20
SHEBOYGAN      MIX PCPN  32  30  92 NE32G39   29.57F FOG     WCI  17
WEST BEND      CLOUDY    32  32 100 NE12G17   29.53F FOG     WCI  23
JUNEAU         CLOUDY    31  29  93 NE9       29.56S WCI  23
$$

LSZ147-162-241800-
LAKE SUPERIOR

STATION/POSITION TIME  TEMP    WIND        PRES    WAVE
                       AIR SEA DIR/SP/G            HT/PER
                 (UTC) (F)     (DEG/KT/KT) (MB)    (FT/S)
DEVILS ISLAND    1700   18      20/ 20/ 23 1015.9S
PORT WING        1630   22      40/ 20/ 23 1014.2S
SAXON HARBOR     1641   24      30/ 20/ 25 1012.5R
$$

LMZ867-665-643>646-241800-
LAKE MICHIGAN

STATION/POSITION TIME  TEMP    WIND        PRES    WAVE
                       AIR SEA DIR/SP/G            HT/PER
                 (UTC) (F)     (DEG/KT/KT) (MB)    (FT/S)
CHAMBERS ISLAND  1630   27      10/ 27/ 32 1005.8R
NORTHPORT PIER   1640   27      20/ 18/ 28 1006.4F
SISTER BAY       1605   28      10/ 17/ 27   N/A
KEWAUNEE LAKESHO 1654   30      30/ 23/ 32 1003.5F
SHEBOYGAN LAKESH 1700   33      30/ 33/ 36 1001.5F
PORT WASHINGTON  1630   35      30/ 20/ 29 1002.4F
MILWAUKEE LAKESH 1700   35      20/ 25/ 28   N/A
KENOSHA   LAKESH 1700   35      20/ 23/ 25  999.3
$$

TC  - TEMPERATURE IN CELSIUS
VSB - VISIBILITY IN STATUTE MILES
WCI - WIND CHILL INDEX
HX  - HEAT INDEX





USA.gov is the U.S. government's official web portal to all federal, state and local government web resources and services.